Change the Weather History Date:

Wednesday, June 4, 2014

  Actual Average Record
Temperature  
Mean Temperature 62 °F 61 °F  
Max Temperature 73 °F 73 °F 101 °F (1988)
Min Temperature 50 °F 49 °F 33 °F (1937)
Degree Days  
Heating Degree Days 3 5  
Month to date heating degree days 13 23  
Since 1 June heating degree days 13 23  
Since 1 July heating degree days 7090 6709  
Cooling Degree Days 0 1  
Month to date cooling degree days 0 4  
Year to date cooling degree days 16 21  
Since 1 June cooling degree days 0 4  
Growing Degree Days 12 (Base 50)    
Moisture  
Dew Point 47 °F    
Average Humidity 54    
Maximum Humidity 72    
Minimum Humidity 36    
Precipitation  
Precipitation 0.35 in 0.08 in 1.24 in (1942)
Month to date precipitation 0.55 0.32  
Year to date precipitation 8.38 6.18  
Snow  
Snow T in 0.00 in T in (1996)
Month to date snowfall T 0.0  
Since 1 June snowfall T 0.0  
Since 1 July snowfall 103.5 55.0  
Snow Depth 0.00 in    
Sea Level Pressure  
Sea Level Pressure 29.90 in    
Wind  
Wind Speed 10 mph (SW)    
Max Wind Speed 32 mph    
Max Gust Speed 42 mph    
Visibility 9 miles    
Events Rain , Hail , Thunderstorm    
T = Trace of Precipitation, MM = Missing Value Source: NWS Daily Summary

Daily Weather History Graph

Daily Weather History Graph

Search for Another Location

Airport or City:

Trip Planner

Search our weather history database for the weather conditions in past years. The results will help you decide how hot, cold, wet, or windy it might be!

Date:

Astronomy

Jun. 04, 2014 Rise Set
Actual Time 5:26 AM MDT 8:59 PM MDT
Civil Twilight 4:48 AM MDT 9:36 PM MDT
Nautical Twilight 3:58 AM MDT 10:26 PM MDT
Astronomical Twilight 2:53 AM MDT 11:32 PM MDT
Moon 12:03 PM MDT (6/4) 12:46 AM MDT (6/4)
Length of Visible Light 16h 48m
Length of Day
15h 33m
Waxing Crescent, 39% of the Moon is Illuminated
Jun 4
Waxing Crescent
Jun 5
First Quarter
Jun 12
Full
Jun 19
Last Quarter
Jun 27
New

Hourly Weather History & Observations

Time (MDT) Temp. Dew Point Humidity Pressure Visibility Wind Dir Wind Speed Gust Speed Precip Events Conditions
12:11 AM 59.0 °F 46.9 °F 64% 29.93 in 10.0 mi SSE 5.8 mph - N/A   Mostly Cloudy
12:53 AM 57.2 °F 48.2 °F 72% 29.95 in 10.0 mi NW 9.2 mph - N/A   Mostly Cloudy
1:53 AM 57.0 °F 46.9 °F 69% 29.88 in 10.0 mi NNE 9.2 mph - 0.00 in   Mostly Cloudy
2:53 AM 57.0 °F 46.9 °F 69% 29.88 in 10.0 mi SSE 6.9 mph - N/A   Scattered Clouds
3:53 AM 55.9 °F 46.9 °F 72% 29.89 in 10.0 mi WSW 10.4 mph - 0.00 in   Mostly Cloudy
4:53 AM 57.0 °F 46.0 °F 67% 29.85 in 10.0 mi SSW 10.4 mph - N/A   Scattered Clouds
5:53 AM 55.9 °F 46.9 °F 72% 29.85 in 10.0 mi WSW 12.7 mph - N/A   Scattered Clouds
6:53 AM 55.9 °F 46.9 °F 72% 29.87 in 10.0 mi SW 12.7 mph - N/A   Partly Cloudy
7:53 AM 59.0 °F 48.0 °F 67% 29.87 in 10.0 mi WSW 11.5 mph - N/A   Scattered Clouds
8:53 AM 63.0 °F 48.0 °F 58% 29.88 in 10.0 mi SW 11.5 mph - N/A   Partly Cloudy
9:53 AM 66.9 °F 48.9 °F 52% 29.89 in 10.0 mi West 8.1 mph - N/A   Partly Cloudy
10:53 AM 69.1 °F 46.9 °F 45% 29.88 in 10.0 mi NNW 10.4 mph - N/A   Scattered Clouds
11:53 AM 69.1 °F 41.0 °F 36% 29.87 in 10.0 mi NNW 12.7 mph - N/A   Mostly Cloudy
11:56 AM 69.1 °F 42.1 °F 38% 29.93 in 10.0 mi North 12.7 mph - N/A Thunderstorm Thunderstorm
12:34 PM 57.9 °F 46.0 °F 65% 30.00 in 3.0 mi WSW 28.8 mph 41.4 mph 0.00 in Rain , Thunderstorm Thunderstorms with Small Hail
12:36 PM 55.0 °F 46.0 °F 72% 30.01 in 1.5 mi West 29.9 mph 41.4 mph 0.00 in Rain , Hail , Thunderstorm Thunderstorms with Hail
12:40 PM 51.1 °F 43.0 °F 74% 30.00 in 2.0 mi SW 17.3 mph 41.4 mph 0.04 in Rain , Thunderstorm Heavy Thunderstorms and Rain
12:42 PM 51.1 °F 43.0 °F 74% 30.00 in 3.0 mi SSW 12.7 mph 41.4 mph 0.18 in Rain , Thunderstorm Heavy Thunderstorms and Rain
12:53 PM 54.0 °F 45.0 °F 72% 29.93 in 10.0 mi SE 4.6 mph - 0.27 in Rain , Thunderstorm Light Thunderstorms and Rain
1:11 PM 54.0 °F 50.0 °F 86% 29.95 in 10.0 mi ESE 8.1 mph - 0.00 in   Mostly Cloudy
1:53 PM 63.0 °F 52.0 °F 67% 29.91 in 10.0 mi SSE 8.1 mph - 0.00 in   Scattered Clouds
2:53 PM 66.0 °F 46.0 °F 48% 29.88 in 10.0 mi South 10.4 mph - N/A   Mostly Cloudy
3:53 PM 66.0 °F 46.0 °F 48% 29.87 in 10.0 mi South 11.5 mph - N/A   Mostly Cloudy
4:04 PM 66.0 °F 46.0 °F 48% 29.92 in 10.0 mi South 8.1 mph - N/A Thunderstorm Thunderstorm
4:53 PM 60.1 °F 46.9 °F 62% 29.89 in 10.0 mi North 19.6 mph - 0.00 in Rain , Thunderstorm Light Thunderstorms and Rain
5:53 PM 60.1 °F 46.9 °F 62% 29.89 in 10.0 mi ESE 5.8 mph - 0.08 in   Mostly Cloudy
6:53 PM 62.1 °F 48.9 °F 62% 29.89 in 10.0 mi SW 8.1 mph - N/A   Scattered Clouds
7:53 PM 63.0 °F 48.0 °F 58% 29.89 in 10.0 mi WSW 6.9 mph - N/A   Scattered Clouds
8:53 PM 61.0 °F 46.9 °F 60% 29.90 in 10.0 mi West 5.8 mph - N/A   Scattered Clouds
9:53 PM 60.1 °F 46.0 °F 60% 29.90 in 10.0 mi WSW 6.9 mph - N/A   Partly Cloudy
10:53 PM 60.1 °F 46.0 °F 60% 29.90 in 10.0 mi SW 8.1 mph - N/A   Partly Cloudy
11:53 PM 57.0 °F 48.9 °F 74% 29.90 in 10.0 mi SSW 10.4 mph - N/A   Clear